Regional Weather Roundup
Issued by NWS Green Bay, WI

Home | Current Version | Previous Version | Graphics & Text | Print | Product List | Glossary Off
Versions: 1 2 3 4 5 6 7 8 9 10 11 12 13 14 15 16 17 18 19 20 21 22 23 24 25 26 27 28 29 30 31 32 33 34 35 36 37 38 39 40 41 42 43 44 45 46 47 48 49 50

000
ASUS43 KGRB 301510
RWRGRB

NORTH-CENTRAL AND NORTHEAST WISCONSIN REGIONAL WEATHER ROUNDUP
NATIONAL WEATHER SERVICE GREEN BAY WI
1000 AM CDT WED JUL 30 2014

WIZ005-009-010>012-018-019-301600-
NORTH CENTRAL WISCONSIN

CITY           SKY/WX    TMP DP  RH WIND       PRES   REMARKS
IRONWOOD       SUNNY     61  57  88 W6        30.04F
MANITOWISH WTR MOSUNNY   58  56  94 CALM      30.08S
ARBOR VITAE    SUNNY     64  60  87 NW3       30.08S
EAGLE RIVER    SUNNY     61  50  68 NW3       30.07F
LAND O LAKES   SUNNY     63  49  61 NE3       30.07F
RHINELANDER    SUNNY     61  53  75 CALM      30.08F
PHILLIPS       CLOUDY    56  54  93 NW3       30.09S
ANTIGO         SUNNY     62  53  70 NW7       30.07F
TOMAHAWK       CLOUDY    55  54  97 W3        30.10S
MERRILL        MOSUNNY   58  56  95 N3        30.08F
$$

WIZ013-073-301600-
NORTHEAST WISCONSIN

CITY           SKY/WX    TMP DP  RH WIND       PRES   REMARKS
IRON MOUNTAIN  SUNNY     65  48  54 NW10      30.04F
MARINETTE      SUNNY     63  54  72 N6        30.03F
OCONTO         SUNNY     64  53  67 N5        30.04F
$$

WIZ017-030-035>037-045-301600-
CENTRAL WISCONSIN

CITY           SKY/WX    TMP DP  RH WIND       PRES   REMARKS
MEDFORD        CLOUDY    56  56  99 CALM      30.09S
WAUSAU         LGT RAIN  64  54  69 VRB6      30.06F
MOSINEE        SUNNY     64  54  68 NE3       30.09S
MARSHFIELD     SUNNY     66  55  67 CALM      30.08S
WISC RAPIDS    SUNNY     68  56  65 MISG      30.08S
STEVENS POINT  MOSUNNY   64  52  65 N5        30.07F
WAUPACA        MOSUNNY   66  57  73 CALM      30.07R
SHAWANO        SUNNY     66  53  62 CALM      30.06S
CLINTONVILLE   SUNNY     64  54  68 N5        30.06S
$$

WIZ038-039-048-051-301600-
FOX VALLEY

CITY           SKY/WX    TMP DP  RH WIND       PRES   REMARKS
NWS GREEN BAY  SUNNY     67  57  70 N5        30.05F
APPLETON       PTSUNNY   64  54  68 N8        30.06S
OSHKOSH        PTSUNNY   65  58  78 VRB3      30.05S
FOND DU LAC    CLOUDY    66  57  72 NE9       30.06R
$$

WIZ022-050-052-301600-
EAST CENTRAL WISCONSIN

CITY           SKY/WX    TMP DP  RH WIND       PRES   REMARKS
STURGEON BAY   SUNNY     61  54  77 N8        30.05S
MANITOWOC      PTSUNNY   66  55  67 NW6       30.05S
SHEBOYGAN      SUNNY     65  55  70 N7        30.05R
$$

LMZ563-521-522-541>543-301600-
LAKESHORE

STATION/POSITION TIME  TEMP    WIND        PRES    VSBY  WAVE
                       AIR SEA DIR/SP/G                  HT/PER
                 (UTC) (F)     (DEG/KT/KT) (MB)    (MI)  (FT/S)
SHEBOYGAN LKSHOR 1500   58      10/  9/  9 1017.8R
KEWAUNEE LKSHORE 1500   62     140/  4/  5 1017.9R
NORTHPORT PIER   1500   60     320/  7/  9 1016.9S
N MID LAKE BUOY  1500   52 52   30/  4/  8 1016.7R         1/ 3
S GREEN BAY BUOY 1500   60 66   20/  4     1018.3F
SISTER BAY LKSHO 1500   62     360/  9/ 11   N/A
CHAMBERS ISLAND  1500   63     340/  4/  5 1017.6S
MENOMINEE LKSHOR 1500   60      20/  3/  4 1017.8F
$$


USA.gov is the U.S. government's official web portal to all federal, state and local government web resources and services.